This is the latest recevied weather packets stored in our database for station/object MeshWX-3. If no packets are shown the sender has not sent any weather packets the latest 10 day(s).
| Time | Temp. | Humidity | Pressure | Rain* | Wind** | Luminosity | Snow |
|---|---|---|---|---|---|---|---|
| 1788528776 | 35° C | 22% | 976.3 hPa | - | - | - | - |
| 1788526807 | 35° C | 22% | 976.3 hPa | - | - | - | - |
| 1788526796 | 32.78° C | 24% | 976.6 hPa | - | - | - | - |
| 1788524826 | 32.78° C | 24% | 976.6 hPa | - | - | - | - |
| 1788524816 | 32.78° C | 24% | 977.5 hPa | - | - | - | - |
| 1788524488 | 32.78° C | 24% | 977.5 hPa | - | - | - | - |
| 1788522846 | 32.78° C | 24% | 977.5 hPa | - | - | - | - |
| 1788522836 | 32.78° C | 24% | 977.5 hPa | - | - | - | - |
| 1788520925 | 32.78° C | 24% | 977.5 hPa | - | - | - | - |
| 1788520855 | 32.78° C | 25% | 977.5 hPa | - | - | - | - |
| 1788518945 | 32.78° C | 25% | 977.5 hPa | - | - | - | - |
| 1788518875 | 31.67° C | 25% | 977.7 hPa | - | - | - | - |
| 1788516905 | 31.67° C | 25% | 977.7 hPa | - | - | - | - |
| 1788516835 | 30.56° C | 27% | 977.6 hPa | - | - | - | - |
| 1788514805 | 30.56° C | 27% | 977.6 hPa | - | - | - | - |
| 1788514735 | 26.11° C | 34% | 977.7 hPa | - | - | - | - |
| 1788512824 | 26.11° C | 34% | 977.7 hPa | - | - | - | - |
| 1788512758 | 25.56° C | 34% | 977.9 hPa | - | - | - | - |
| 1788510844 | 25.56° C | 34% | 977.9 hPa | - | - | - | - |
| 1788510775 | 25.56° C | 34% | 977.9 hPa | - | - | - | - |
| 1788508864 | 25.56° C | 34% | 977.9 hPa | - | - | - | - |
| 1788508794 | 24.44° C | 36% | 977.5 hPa | - | - | - | - |
| 1788506884 | 24.44° C | 36% | 977.5 hPa | - | - | - | - |
| 1788506814 | 23.89° C | 37% | 977.4 hPa | - | - | - | - |
| 1788504843 | 23.89° C | 37% | 977.4 hPa | - | - | - | - |
* Rain since midnight (hover to see other rain measurements)
** Current wind speed in m/s (hover to see current wind gust speed)